FW7166 Weather Reports


Display with metric or nautical units.
time (UTC)temp
F
wind
direction
speed
MPH
gust
MPH
rain 1hr
in
rain 24hr
in
rain mn
in
humidity
%
barometer
mb
20260902025802 53 199 0.0 11.0 0.00 0.00 0.00 92 1014.6
20260902025306 53 199 0.0 11.0 0.00 0.00 0.00 92 1014.9
20260902024802 53 198 0.0 11.0 0.00 0.00 0.00 92 1014.9
20260902023746 54 197 0.0 11.0 0.00 0.00 0.00 92 1014.7
20260902023246 54 197 0.0 11.0 0.00 0.00 0.00 93 1014.6
20260902022746 53 194 0.0 11.0 0.00 0.00 0.00 93 1014.8
20260902022245 53 239 0.0 11.0 0.00 0.00 0.00 93 1014.5
20260902021744 53 243 0.0 11.0 0.00 0.00 0.00 93 1014.5
20260902021244 53 241 0.0 11.0 0.00 0.00 0.00 92 1014.9
20260902020744 53 242 0.0 11.0 0.00 0.00 0.00 92 1014.4
20260902015729 53 261 0.0 11.0 0.00 0.00 0.00 92 1014.7
20260902015229 54 258 0.0 11.0 0.00 0.00 0.00 92 1014.5
20260902014728 54 248 0.0 11.0 0.00 0.00 0.00 92 1014.3
20260902014228 54 250 0.0 11.0 0.00 0.00 0.00 92 1014.4
20260902013728 54 249 0.0 11.0 0.00 0.00 0.00 92 1014.4
20260902013228 54 254 0.0 11.0 0.00 0.00 0.00 92 1014.6
20260902012728 54 269 0.0 11.0 0.00 0.00 0.00 92 1014.5
20260902012227 54 200 0.0 11.0 0.00 0.00 0.00 91 1014.7
20260902011727 54 191 0.0 11.0 0.00 0.00 0.00 91 1014.5
20260902010711 54 202 0.0 11.0 0.00 0.00 0.00 91 1014.7
20260902010210 54 234 0.0 11.0 0.00 0.00 0.00 91 1014.4
20260902005709 54 233 0.0 11.0 0.00 0.00 0.00 90 1014.1
20260902005209 55 234 0.0 11.0 0.00 0.00 0.00 90 1014.5
20260902004709 55 233 0.0 11.0 0.00 0.00 0.00 90 1014.3
20260902004208 55 233 0.0 11.0 0.00 0.00 0.00 89 1014.5
20260902003153 55 230 0.0 11.0 0.00 0.00 0.00 89 1014.7
20260902002653 56 231 0.0 11.0 0.00 0.00 0.00 89 1014.3
20260902002152 56 216 0.0 11.0 0.00 0.00 0.00 89 1014.3
20260902001652 56 244 0.0 11.0 0.00 0.00 0.00 89 1014.5
20260902001152 56 198 0.0 11.0 0.00 0.00 0.00 89 1014.8
20260902000651 56 245 0.0 11.0 0.00 0.00 0.00 89 1014.4
20260902000151 56 224 0.0 11.0 0.00 0.00 0.00 89 1014.5
20260901235650 56 232 0.0 11.0 0.00 0.00 0.00 89 1014.4
20260901235149 57 258 0.0 11.0 0.00 0.00 0.00 89 1014.3
20260901234133 57 252 1.0 11.0 0.00 0.00 0.00 89 1014.7
20260901233633 57 241 0.0 11.0 0.00 0.00 0.00 89 1014.3
20260901233133 57 226 0.0 11.0 0.00 0.00 0.00 89 1014.3
20260901232633 57 225 1.0 11.0 0.00 0.00 0.00 90 1014.4
20260901232133 57 194 0.0 11.0 0.00 0.00 0.00 90 1014.5
20260901231117 57 280 0.0 11.0 0.00 0.00 0.00 91 1014.0
20260901225602 57 247 1.0 11.0 0.00 0.00 0.00 92 1014.3
20260901224546 57 224 1.0 11.0 0.00 0.00 0.00 93 1014.2
20260901224045 57 213 0.0 11.0 0.00 0.00 0.00 93 1014.7
20260901223544 57 213 0.0 11.0 0.00 0.00 0.00 93 1014.6
20260901223044 57 282 0.0 11.0 0.00 0.00 0.00 93 1014.2
20260901222543 57 344 0.0 11.0 0.00 0.00 0.00 93 1014.3
20260901222043 56 338 0.0 11.0 0.00 0.00 0.00 94 1014.4
20260901221542 56 212 0.0 11.0 0.00 0.00 0.00 94 1014.4
20260901221042 56 186 0.0 11.0 0.00 0.00 0.00 94 1014.5
20260901220541 56 187 0.0 11.0 0.00 0.00 0.00 93 1014.8
20260901220040 56 188 0.0 11.0 0.00 0.00 0.00 93 1014.9
20260901215024 56 189 0.0 11.0 0.00 0.00 0.33 93 1014.5
20260901214008 56 188 0.0 11.0 0.00 0.00 0.33 92 1014.4
20260901212437 56 176 0.0 11.0 0.00 0.00 0.33 92 1014.7
20260901211938 57 177 0.0 11.0 0.00 0.00 0.33 92 1014.6
20260901211437 57 176 0.0 11.0 0.00 0.00 0.33 92 1014.4
20260901210937 57 177 0.0 11.0 0.00 0.00 0.33 92 1014.4
20260901205922 57 177 0.0 11.0 0.00 0.00 0.33 91 1014.3
20260901204906 57 173 0.0 11.0 0.00 0.00 0.33 91 1014.3
20260901204405 57 187 0.0 11.0 0.00 0.00 0.33 91 1014.6
20260901203906 57 227 0.0 11.0 0.00 0.00 0.33 90 1014.0
20260901203405 57 223 0.0 11.0 0.00 0.00 0.33 90 1014.2
20260901202904 58 234 0.0 11.0 0.00 0.00 0.33 90 1014.0
20260901202403 58 230 0.0 11.0 0.00 0.00 0.33 90 1014.0
20260901201903 58 234 0.0 11.0 0.00 0.00 0.33 90 1014.1
20260901201404 58 226 0.0 11.0 0.00 0.00 0.33 90 1013.8
20260901200903 58 186 0.0 11.0 0.00 0.00 0.33 90 1014.5
20260901200404 58 311 0.0 11.0 0.00 0.00 0.33 90 1013.8
20260901195903 58 204 0.0 11.0 0.00 0.00 0.33 90 1014.3
20260901195404 58 204 0.0 11.0 0.00 0.00 0.33 90 1014.4
20260901194904 58 205 0.0 11.0 0.00 0.00 0.33 89 1014.3
20260901193846 58 204 0.0 11.0 0.00 0.00 0.33 89 1014.2
20260901193345 59 204 0.0 11.0 0.00 0.00 0.33 89 1014.0
20260901192330 59 256 0.0 11.0 0.00 0.00 0.33 88 1013.9
20260901191830 59 202 0.0 11.0 0.00 0.00 0.33 88 1013.9
20260901191328 59 184 0.0 11.0 0.00 0.00 0.33 88 1013.9
20260901190311 59 211 0.0 11.0 0.00 0.00 0.33 87 1014.1
20260901185811 59 271 0.0 11.0 0.00 0.00 0.33 87 1014.0
20260901185310 60 271 0.0 11.0 0.00 0.00 0.33 87 1014.0
20260901183739 60 248 0.0 11.0 0.00 0.00 0.33 86 1013.6
20260901182724 60 254 0.0 11.0 0.00 0.00 0.33 86 1013.8
20260901181709 60 256 0.0 11.0 0.00 0.00 0.33 85 1013.6
20260901181209 61 278 0.0 11.0 0.00 0.00 0.33 85 1013.4
20260901180154 61 264 0.0 11.0 0.00 0.00 0.33 84 1013.4
20260901175140 61 302 0.0 11.0 0.00 0.00 0.33 83 1013.3
20260901174639 62 196 0.0 11.0 0.00 0.00 0.33 82 1013.8
20260901174139 62 193 0.0 11.0 0.00 0.00 0.33 82 1013.6
20260901173637 62 249 0.0 11.0 0.00 0.00 0.33 81 1013.3
20260901173138 62 263 0.0 11.0 0.00 0.00 0.33 81 1013.4
20260901172638 62 235 0.0 11.0 0.00 0.00 0.33 80 1013.4
20260901172137 63 278 0.0 11.0 0.00 0.00 0.33 80 1013.4
20260901171636 63 274 1.0 11.0 0.00 0.00 0.33 79 1013.1
20260901171136 63 270 0.0 11.0 0.00 0.00 0.33 79 1012.9
20260901170635 63 207 0.0 11.0 0.00 0.00 0.33 78 1013.7
20260901170135 63 220 0.0 11.0 0.00 0.00 0.33 77 1012.9
20260901165634 63 228 0.0 11.0 0.00 0.00 0.33 77 1013.1
20260901164619 64 231 0.0 11.0 0.00 0.00 0.33 77 1013.2
20260901164119 64 223 0.0 11.0 0.00 0.00 0.33 76 1013.2
20260901162548 64 205 1.0 11.0 0.00 0.00 0.33 77 1013.0
20260901162048 64 221 0.0 11.0 0.00 0.00 0.33 77 1013.4
20260901161548 64 200 1.0 11.0 0.00 0.00 0.33 76 1013.5
20260901161048 64 202 0.0 11.0 0.00 0.00 0.33 76 1013.0
20260901160547 64 203 0.0 11.0 0.00 0.00 0.33 75 1012.9
20260901160046 64 210 1.0 11.0 0.00 0.00 0.33 75 1013.1
20260901155545 65 206 0.0 11.0 0.00 0.00 0.33 75 1013.1
20260901155045 64 229 0.0 11.0 0.00 0.00 0.33 75 1012.7
20260901154544 64 177 1.0 11.0 0.00 0.00 0.33 75 1013.3
20260901154044 64 213 0.0 11.0 0.00 0.00 0.33 74 1013.0
20260901153543 65 212 0.0 11.0 0.00 0.00 0.33 73 1012.8
20260901153042 65 210 0.0 11.0 0.00 0.00 0.33 74 1012.8
20260901152542 66 202 0.0 11.0 0.00 0.00 0.33 73 1012.9
20260901152041 66 222 2.0 11.0 0.00 0.00 0.33 71 1012.6
20260901151541 66 221 0.0 11.0 0.00 0.00 0.33 70 1012.7
20260901151041 66 194 1.0 11.0 0.00 0.00 0.33 70 1012.7
20260901150025 66 243 0.0 11.0 0.00 0.00 0.33 73 1012.5
20260901145525 66 214 1.0 11.0 0.00 0.00 0.33 74 1012.7
20260901145024 66 241 1.0 11.0 0.00 0.00 0.33 75 1012.5
20260901144523 66 205 2.0 11.0 0.00 0.00 0.33 74 1012.7
20260901144022 66 228 1.0 11.0 0.00 0.00 0.33 74 1012.8
20260901143522 66 230 0.0 11.0 0.00 0.00 0.33 73 1012.8
20260901143021 66 254 1.0 11.0 0.00 0.00 0.33 72 1012.6
20260901142521 67 204 1.0 11.0 0.00 0.00 0.33 69 1012.9
20260901142020 68 180 1.0 11.0 0.00 0.00 0.33 68 1012.7
20260901141520 68 229 0.0 11.0 0.00 0.00 0.33 69 1012.5
20260901141019 68 215 0.0 11.0 0.00 0.00 0.33 69 1012.3
20260901140518 68 225 2.0 11.0 0.00 0.00 0.33 68 1012.2
20260901140017 68 229 2.0 11.0 0.00 0.00 0.33 68 1012.6
20260901135516 68 206 2.0 11.0 0.00 0.00 0.33 69 1012.5
20260901135015 68 191 1.0 11.0 0.00 0.00 0.33 69 1012.3
20260901134515 68 213 2.0 11.0 0.00 0.00 0.33 67 1012.3
20260901134014 68 243 0.0 11.0 0.00 0.00 0.33 68 1012.5
20260901133513 67 202 2.0 11.0 0.00 0.00 0.33 71 1012.5
20260901132457 67 228 1.0 11.0 0.00 0.00 0.33 71 1012.3
20260901131956 67 197 2.0 11.0 0.00 0.00 0.33 69 1012.3
20260901131455 68 177 2.0 11.0 0.00 0.00 0.33 70 1012.3
20260901130955 68 206 1.0 11.0 0.00 0.00 0.33 70 1012.5
20260901130454 67 186 1.0 11.0 0.00 0.00 0.33 73 1012.5
20260901125953 67 258 0.0 11.0 0.00 0.00 0.33 73 1012.5
20260901125452 67 162 0.0 11.0 0.00 0.00 0.33 73 1012.9
20260901124951 66 253 1.0 11.0 0.00 0.00 0.33 73 1012.3
20260901124450 66 235 2.0 11.0 0.00 0.00 0.33 73 1012.3
20260901123949 66 229 1.0 11.0 0.00 0.00 0.33 74 1012.2
20260901123448 65 189 2.0 11.0 0.00 0.00 0.33 75 1012.6
20260901122948 66 234 1.0 11.0 0.00 0.00 0.33 77 1011.9
20260901122448 66 241 0.0 11.0 0.00 0.00 0.33 78 1012.4
20260901121947 66 205 0.0 11.0 0.00 0.00 0.33 77 1012.5
20260901121446 65 174 0.0 11.0 0.00 0.00 0.33 79 1012.4
20260901120945 65 245 0.0 11.0 0.00 0.00 0.33 79 1012.7
20260901120445 65 210 1.0 11.0 0.00 0.00 0.33 78 1012.3
20260901115944 65 232 0.0 11.0 0.00 0.00 0.33 78 1012.7
20260901115444 65 265 0.0 11.0 0.00 0.00 0.33 76 1012.2
20260901114944 65 228 0.0 11.0 0.00 0.00 0.33 77 1012.3
20260901114443 65 221 1.0 11.0 0.00 0.00 0.33 77 1012.7
20260901113943 65 212 0.0 11.0 0.00 0.00 0.33 77 1012.5
20260901113442 65 228 0.0 11.0 0.00 0.00 0.33 77 1012.0
20260901112942 65 235 0.0 11.0 0.00 0.00 0.33 77 1012.3
20260901112442 65 184 0.0 11.0 0.00 0.00 0.33 78 1012.6
20260901111941 65 267 0.0 11.0 0.00 0.00 0.33 79 1012.2
20260901111440 64 271 0.0 11.0 0.00 0.00 0.33 82 1012.0
20260901110940 64 221 1.0 11.0 0.00 0.00 0.33 81 1012.4
20260901110439 64 174 0.0 11.0 0.00 0.00 0.33 82 1012.3
20260901105938 64 277 0.0 11.0 0.00 0.00 0.33 82 1012.4
20260901105438 64 212 1.0 11.0 0.00 0.00 0.33 84 1012.5
20260901104938 64 340 0.0 11.0 0.00 0.00 0.33 84 1011.9
20260901104437 64 275 0.0 11.0 0.00 0.00 0.33 87 1012.1
20260901103937 63 277 0.0 11.0 0.00 0.00 0.33 87 1012.0
20260901103437 63 321 0.0 11.0 0.00 0.00 0.33 86 1012.1
20260901102937 63 264 0.0 11.0 0.00 0.00 0.33 86 1011.8
20260901101922 63 294 0.0 11.0 0.00 0.00 0.33 87 1011.7
20260901101422 63 295 0.0 11.0 0.00 0.00 0.33 87 1011.7
20260901100922 63 307 0.0 11.0 0.00 0.00 0.33 88 1011.7
20260901100422 63 304 0.0 11.0 0.00 0.00 0.33 88 1011.8
20260901095922 63 298 0.0 11.0 0.00 0.00 0.33 88 1011.8
20260901095422 63 287 0.0 11.0 0.00 0.00 0.33 89 1011.6
20260901094922 63 318 0.0 11.0 0.00 0.00 0.33 89 1011.5
20260901094422 63 253 0.0 11.0 0.00 0.00 0.33 90 1011.5
20260901093921 62 274 0.0 11.0 0.00 0.00 0.33 92 1011.5
20260901093420 62 264 0.0 11.0 0.00 0.00 0.33 92 1011.7
20260901092405 62 294 0.0 11.0 0.00 0.00 0.33 92 1011.4
20260901091905 62 332 0.0 11.0 0.00 0.00 0.33 93 1011.5
20260901091403 61 281 0.0 11.0 0.00 0.00 0.33 94 1011.3
20260901090903 61 253 0.0 11.0 0.00 0.00 0.33 94 1011.6
20260901090402 61 320 0.0 11.0 0.00 0.00 0.33 94 1011.3
20260901085901 62 289 0.0 11.0 0.00 0.00 0.33 94 1011.3
20260901085400 62 223 0.0 11.0 0.00 0.00 0.33 94 1011.2
20260901084900 62 202 0.0 11.0 0.00 0.00 0.33 96 1011.2
20260901084400 61 256 0.0 11.0 0.00 0.00 0.33 96 1011.0
20260901083344 61 242 0.0 11.0 0.00 0.00 0.33 98 1011.1
20260901082844 60 244 0.0 11.0 0.00 0.00 0.33 98 1010.9
20260901082343 60 245 0.0 11.0 0.00 0.00 0.33 98 1011.2
20260901080812 60 257 0.0 11.0 0.00 0.00 0.33 98 1010.9
20260901080311 60 252 0.0 11.0 0.00 0.00 0.33 98 1010.9
20260901075254 60 332 0.0 11.0 0.00 0.00 0.33 98 1011.2
20260901074753 60 263 0.0 11.0 0.00 0.00 0.33 98 1010.8
20260901073738 59 287 0.0 11.0 0.00 0.00 0.33 98 1010.7
20260901073238 59 275 0.0 11.0 0.00 0.00 0.33 98 1010.8
20260901072738 59 279 0.0 11.0 0.00 0.00 0.33 98 1010.7
20260901071207 59 275 0.0 11.0 0.00 0.00 0.33 98 1010.3
20260901070152 59 241 0.0 11.0 0.00 0.00 0.33 99 1010.4
20260901065651 59 306 0.0 11.0 0.00 0.00 0.33 98 1010.5
20260901065151 59 296 0.0 11.0 0.00 0.00 0.33 99 1010.5
20260901064651 59 209 0.0 11.0 0.00 0.00 0.33 99 1010.3
20260901064151 59 259 0.0 11.0 0.00 0.00 0.33 99 1010.4
20260901063650 59 238 0.0 11.0 0.00 0.00 0.33 99 1010.2
20260901063150 59 251 0.0 11.0 0.00 0.00 0.33 99 1010.3
20260901062649 59 329 0.0 11.0 0.00 0.00 0.33 99 1010.3
20260901061632 59 278 0.0 11.0 0.00 0.00 0.33 99 1010.2
20260901061131 58 271 0.0 11.0 0.00 0.00 0.33 99 1010.3
20260901060631 58 312 0.0 11.0 0.00 0.00 0.33 99 1010.2
20260901060130 58 311 0.0 11.0 0.00 0.00 0.33 99 1010.1
20260901055629 58 313 0.0 11.0 0.00 0.00 0.33 99 1010.4
20260901055129 58 304 0.0 11.0 0.00 0.00 0.33 99 1010.2
20260901054628 58 212 0.0 11.0 0.00 0.00 0.33 99 1010.4
20260901054127 58 205 0.0 11.0 0.00 0.00 0.33 99 1010.5
20260901053626 58 205 0.0 11.0 0.00 0.00 0.33 99 1010.2
20260901053126 58 205 0.0 11.0 0.00 0.00 0.33 99 1010.7
20260901052626 58 205 0.0 11.0 0.00 0.00 0.33 99 1010.6
20260901051611 57 205 0.0 11.0 0.00 0.00 0.33 99 1010.3
20260901051110 57 205 0.0 11.0 0.00 0.00 0.33 99 1010.4
20260901050610 57 205 0.0 11.0 0.00 0.00 0.33 99 1010.3
20260901050109 57 205 0.0 11.0 0.00 0.00 0.33 99 1010.5
20260901045609 57 338 0.0 11.0 0.00 0.00 0.33 99 1010.3
20260901045109 57 332 0.0 11.0 0.00 0.00 0.33 99 1010.0
20260901044054 57 277 0.0 11.0 0.00 0.00 0.33 98 1010.2
20260901043554 57 281 0.0 11.0 0.00 0.00 0.33 98 1009.9
20260901042539 57 277 0.0 11.0 0.00 0.00 0.33 98 1009.8
20260901040452 57 338 0.0 11.0 0.03 0.00 0.32 98 1009.8
20260901035952 57 331 0.0 11.0 0.06 0.00 0.32 98 1010.1
20260901035451 57 170 0.0 11.0 0.06 0.00 0.32 98 1010.2
20260901034434 57 170 0.0 11.0 0.06 0.00 0.32 98 1010.0
20260901033934 57 170 0.0 11.0 0.06 0.00 0.32 98 1010.2
20260901033433 57 170 0.0 11.0 0.08 0.00 0.32 98 1009.8
20260901032933 57 170 0.0 11.0 0.08 0.00 0.32 98 1009.7
20260901032433 57 170 0.0 11.0 0.10 0.00 0.32 98 1009.8
20260901031932 57 170 0.0 11.0 0.11 0.00 0.32 98 1009.8
20260901030916 57 170 0.0 11.0 0.13 0.00 0.31 98 1009.8